Preview of NWS' New Version of Forecast
This preview is not operational and should not be used for support decisions.

Regional Weather Roundup (RWR)

Issued by National Weather Service (NWS)

                            
000
ASUS43 KDTX 181001
RWRMI 
MICHIGAN HOURLY REGIONAL WEATHER ROUNDUP
NATIONAL WEATHER SERVICE DETROIT/PONTIAC MI
600 AM EDT MON MAR 18 2019

NOTE: "FAIR" INDICATES FEW OR NO CLOUDS BELOW 12,000 FEET WITH NO
SIGNIFICANT WEATHER AND/OR OBSTRUCTION TO VISIBILITY.

MIZ047>049-052>055-059>063-066>070-074>076-081>083-181100-
SOUTHEAST LOWER MICHIGAN
  
CITY           SKY/WX    TMP DP  RH WIND       PRES   REMARKS
ADRIAN         FAIR      26  20  77 NW6       30.26S WCI  19          
ALMA           FAIR      25  21  86 CALM      30.28R                  
ANN ARBOR      FAIR      26  25  96 NW9       30.25R FOG     WCI  17  
CARO           FAIR      28  25  91 NW3       30.25R                  
DETROIT CITY   MOCLDY    27  23  85 CALM      30.26R                  
DETROIT        MOCLDY    29  24  82 NW3       30.26R HAZE             
FLINT          FAIR      26  25  96 W3        30.26R FOG              
GROSSE ILE     FAIR      29  28  96 CALM      30.25S FOG              
HILLSDALE      FAIR      24  18  80 W3        30.25R                  
HOWELL         FOG       28  27  95 NW3       30.25R VSB 1/2          

CITY           SKY/WX    TMP DP  RH WIND       PRES   REMARKS
JACKSON        FAIR      23  19  85 SW5       30.26R WCI  17          
LAMBERTVILLE   FAIR      27  25  92 CALM      30.27R                  
LANSING        FAIR      23  19  85 NW5       30.27S WCI  17          
LAPEER         FAIR      26  24  93 CALM      30.25R                  
MASON          FAIR      23  21  93 CALM      30.26S                  
MONROE         FAIR      28  27  96 W3        30.26R FOG              
MT. CLEMENS    FAIR      23  23 100 CALM      30.23S                  
PONTIAC        FAIR      27  25  92 W5        30.23R WCI  22          
PORT HOPE        N/A     31  23  72 N6        30.23S WCI  25          
PORT HURON     MOCLDY    23  23 100 CALM      30.24S                  
TRI CITIES     FAIR      26  23  88 NW6       30.27R WCI  19          
MIDLAND        FAIR      23  21  92 CALM      30.27R                  
TROY           CLOUDY    30  26  83 NW3       30.26S                  
SAGINAW HB     FAIR      28  23  80 NW5       30.26S WCI  23          
$$
MIZ043>046-050>051-056>058-064>065-071>073-077>080-181100-
SOUTHWEST LOWER MICHIGAN
  
CITY           SKY/WX    TMP DP  RH WIND       PRES   REMARKS
BATTLE CREEK   FAIR      22  19  89 CALM      30.28R                  
BENTON HARBOR  FAIR      21  17  84 CALM      30.31R                  
BIG RAPIDS     FAIR      18  17  93 CALM      30.25S                  
COLDWATER      FAIR      26  23  90 CALM      30.28R                  
FREMONT        FAIR      22  22  98 CALM      30.27S                  
HOLLAND        FAIR      26  22  84 W3        30.29S                  
GRAND RAPIDS   FAIR      23  18  81 W6        30.28S WCI  16          
KALAMAZOO      FAIR      22  19  89 CALM      30.29R                  
LUDINGTON      FAIR      20  19  93 CALM      30.27S                  
MARSHALL       FAIR      22  22  99 W3        30.27R                  
MOUNT PLEASANT FAIR      25  19  79 W3        30.26S                  
MUSKEGON       FAIR      23  19  85 CALM      30.29S                  
SOUTH HAVEN    FAIR      22  20  93 CALM      30.30S                  
$$
MIZ016>042-181100-
NORTHERN LOWER MICHIGAN
  
CITY           SKY/WX    TMP DP  RH WIND       PRES   REMARKS
ALPENA         FAIR      13  10  88 W5        30.26R WCI   5          
BEAVER ISLAND  CLOUDY    19  17  95 CALM      30.27S                  
BELLAIRE       FAIR      15  13  92 CALM      30.28S                  
CADILLAC       FAIR       7   4  86 CALM      30.23R                  
CHARLEVOIX     FAIR      20  17  91 CALM      30.30R                  
FRANKFORT      FAIR      21  15  80 CALM      30.28R                  
GAYLORD        FAIR      11   7  84 CALM      30.22S                  
HARBOR SPRINGS FAIR      16  14  91 CALM      30.26S                  
HOUGHTON LAKE  FAIR      17  13  84 CALM      30.24S                  
MANISTEE       FAIR      18  16  92 E6        30.28R WCI  10          
OSCODA         MOCLDY    21  17  84 NW3       30.26R                  
PELLSTON       FAIR      10   6  84 CALM      30.27R                  
ROGERS CITY    FAIR      19  14  83 W6        30.26S WCI  10          
TRAVERSE CITY  FAIR      19  15  84 CALM      30.27R                  
$$
MIZ007>008-015-181100-
EASTERN UPPER MICHIGAN
  
CITY           SKY/WX    TMP DP  RH WIND       PRES   REMARKS
KINROSS        CLOUDY    14  12  92 CALM      30.24R                  
MACKINAC ISLAN FAIR      22  18  85 W6        30.24S WCI  15          
NEWBERRY       CLOUDY    18  16  92 W6        30.24R WCI   9          
S. S. MARIE    FAIR      16  14  92 CALM      30.23R                  
MUNISING         N/A     17  13  84 S6        30.24F WCI   9          
$$
MIZ004>006-011>014-085-181100-
CENTRAL UPPER MICHIGAN
  
CITY           SKY/WX    TMP DP  RH WIND       PRES   REMARKS
MANISTIQUE     CLOUDY    18  13  80 W3        30.25F                  
ESCANABA       FAIR      14  11  87 W6        30.28S WCI   5          
MENOMINEE      FAIR      19  15  84 NW3       30.30S                  
SAWYER-GWINN   CLOUDY    16  14  91 SW3       30.21F                  
$$
MIZ001>003-009>011-084-181100-
WESTERN UPPER MICHIGAN
  
CITY           SKY/WX    TMP DP  RH WIND       PRES   REMARKS
IRON MOUNTAIN  FAIR      15  10  80 CALM      30.24S                  
HOUGHTON       CLOUDY    26  15  63 W14       30.18F WCI  14          
COPPER HARBOR    N/A     22  16  78 CALM      30.20F                  
IRONWOOD       FAIR      18  17  96 W5        30.26R WCI  11          
$$

ABBREVIATIONS USED IN REMARKS
   TC - TEMPERATURE IN CELSIUS
  WCI - WIND CHILL INDEX
   HX - HEAT INDEX
  VSB - VISIBILITY